KORONAS-FOTON (33504 NORAD) Tracking and Keplerian Element Data

This shows tracking and keplerian element data for the satellite.

Feedback or suggestion? Click here.




ElementValue
Catalog33504
NameKORONAS-FOTON
Epoch Orbit86698
Epoch Day286.84467862
Epoch Year2024
RAAN83.4873
Inclination82.4331
Eccentricity0.0013834
Argument of Perigee183.6272
Mean Anonmoly176.487
Mean Motion15.29384072
Decay Rate0.00021601
L11 33504U 09003A 24286.84467862 .00021601 00000+0 75390-3 0 9990
L22 33504 82.4331 83.4873 0013834 183.6272 176.4870 15.29384072866980



Live tracking and technical data element details for KORONAS-FOTON (NORAD 33504). KORONAS-FOTON can be tracked NOW for your location showing map with azimuth and elevation plus other details from your city location.







IsCatalogInMostPopularTable: catalog: 33504, numindb: 648
Update: records affected: 1



GetName: 33504 KORONAS-FOTON

Hit Count: updated at: Wed, 04 Dec 2024 13:07:00 GMT